When you browse on this site, cookies collect data to enhance your experience and personalize the content and advertising you see.
Visit our Privacy Policy to learn more. By continuing to use the site, you agree to this use of cookies and data.
  • In Slovakia
  • List of Countries
  • For 7 days
  • Water Temperature
  • Satellite Maps
  • Weather Map
  • Weather Widgets
  • user-avatar
    Login

    Hourly Weather Kyrdzhali

    Today, 24 March, Sunday

    Time Temperature Precipitation Wind Pressure Humidity
    00:00 +9°C° 0 mm 2 mps 731 mmHg 71%
    01:00 +9°C° 0 mm 1 mps 731 mmHg 72%
    02:00 +8°C° 0 mm 1 mps 731 mmHg 75%
    03:00 +7°C° 0 mm 1 mps 731 mmHg 74%
    04:00 +7°C° 0 mm 1 mps 731 mmHg 74%
    05:00 +7°C° 0 mm 1 mps 731 mmHg 74%
    06:00 +8°C° 0 mm 1 mps 731 mmHg 69%
    07:00 +8°C° 0 mm 1 mps 731 mmHg 65%
    08:00 +8°C° 0 mm 2 mps 731 mmHg 58%
    09:00 +9°C° 0 mm 3 mps 731 mmHg 53%
    10:00 +11°C° 0 mm 4 mps 731 mmHg 47%
    11:00 +12°C° 0 mm 5 mps 731 mmHg 42%
    12:00 +12°C° 0 mm 5 mps 731 mmHg 40%
    13:00 +13°C° 0 mm 5 mps 730 mmHg 38%
    14:00 +14°C° 0 mm 5 mps 730 mmHg 35%
    15:00 +14°C° 0 mm 4 mps 730 mmHg 35%
    16:00 +14°C° 0 mm 4 mps 729 mmHg 35%
    17:00 +14°C° 0 mm 4 mps 729 mmHg 36%
    18:00 +12°C° 0 mm 3 mps 729 mmHg 39%
    19:00 +10°C° 0 mm 2 mps 729 mmHg 43%
    20:00 +9°C° 0 mm 1 mps 729 mmHg 46%
    21:00 +9°C° 0 mm 1 mps 729 mmHg 47%
    22:00 +9°C° 0 mm 1 mps 729 mmHg 48%
    23:00 +8°C° 0 mm 1 mps 729 mmHg 49%

    Tomorrow, 25 March, Monday

    Time Temperature Precipitation Wind Pressure Humidity
    00:00 +8°C° 0 mm 1 mps 729 mmHg 50%
    01:00 +8°C° 0 mm 1 mps 729 mmHg 52%
    02:00 +7°C° 0 mm 1 mps 728 mmHg 53%
    03:00 +7°C° 0 mm 1 mps 728 mmHg 54%
    04:00 +7°C° 0 mm 1 mps 728 mmHg 55%
    05:00 +7°C° 0 mm 1 mps 727 mmHg 56%
    06:00 +8°C° 0 mm 1 mps 727 mmHg 54%
    07:00 +9°C° 0 mm 1 mps 727 mmHg 53%
    08:00 +10°C° 0 mm 1 mps 727 mmHg 51%
    09:00 +12°C° 0 mm 1 mps 727 mmHg 46%
    10:00 +14°C° 0 mm 2 mps 726 mmHg 41%
    11:00 +16°C° 0 mm 2 mps 726 mmHg 36%
    12:00 +17°C° 0 mm 2 mps 726 mmHg 36%
    13:00 +18°C° 0 mm 3 mps 725 mmHg 37%
    14:00 +18°C° 0 mm 3 mps 725 mmHg 37%
    15:00 +18°C° 0 mm 3 mps 724 mmHg 42%
    16:00 +17°C° 0 mm 3 mps 724 mmHg 46%
    17:00 +16°C° 0 mm 3 mps 723 mmHg 51%
    18:00 +14°C° 0 mm 3 mps 723 mmHg 58%
    19:00 +12°C° 0 mm 3 mps 723 mmHg 65%
    20:00 +10°C° 0 mm 2 mps 722 mmHg 73%
    21:00 +10°C° 0 mm 2 mps 722 mmHg 74%
    22:00 +9°C° 0 mm 2 mps 722 mmHg 74%
    23:00 +10°C° 0 mm 1 mps 722 mmHg 75%

    Day after tomorrow, 26 March, Tuesday

    Time Temperature Precipitation Wind Pressure Humidity
    00:00 +10°C° 0 mm 1 mps 722 mmHg 75%
    01:00 +9°C° 0 mm 1 mps 722 mmHg 76%
    02:00 +9°C° 0 mm 1 mps 722 mmHg 76%
    03:00 +9°C° 0 mm 1 mps 722 mmHg 76%
    04:00 +8°C° 0 mm 0 mps 722 mmHg 77%
    05:00 +8°C° 0 mm 0 mps 722 mmHg 78%
    06:00 +10°C° 0 mm 1 mps 722 mmHg 74%
    07:00 +11°C° 0 mm 1 mps 722 mmHg 71%
    08:00 +12°C° 0 mm 1 mps 723 mmHg 68%
    09:00 +13°C° 0 mm 2 mps 723 mmHg 62%
    10:00 +14°C° 0 mm 3 mps 724 mmHg 55%
    11:00 +17°C° 0 mm 3 mps 724 mmHg 49%
    12:00 +17°C° 0 mm 4 mps 724 mmHg 47%
    13:00 +17°C° 0 mm 4 mps 724 mmHg 46%
    14:00 +17°C° 0 mm 5 mps 724 mmHg 44%
    15:00 +16°C° 0.1 mm 5 mps 724 mmHg 49%
    16:00 +15°C° 0.1 mm 6 mps 724 mmHg 54%
    17:00 +14°C° 0.1 mm 6 mps 724 mmHg 58%
    18:00 +13°C° 0.1 mm 5 mps 725 mmHg 62%
    19:00 +11°C° 0.1 mm 4 mps 726 mmHg 65%
    20:00 +10°C° 0.1 mm 4 mps 726 mmHg 69%
    21:00 +9°C° 0.1 mm 3 mps 727 mmHg 73%
    22:00 +9°C° 0.1 mm 3 mps 727 mmHg 76%
    23:00 +8°C° 0.1 mm 3 mps 727 mmHg 80%

    27 March, Wednesday

    Time Temperature Precipitation Wind Pressure Humidity
    00:00 +8°C° 0.2 mm 3 mps 728 mmHg 81%
    01:00 +8°C° 0.2 mm 3 mps 728 mmHg 83%
    02:00 +8°C° 0.2 mm 3 mps 728 mmHg 85%
    03:00 +7°C° 0.3 mm 3 mps 728 mmHg 85%
    04:00 +7°C° 0.3 mm 2 mps 729 mmHg 86%
    05:00 +7°C° 0.3 mm 2 mps 729 mmHg 86%
    06:00 +7°C° 0.1 mm 2 mps 729 mmHg 84%
    07:00 +8°C° 0.1 mm 2 mps 729 mmHg 81%
    08:00 +8°C° 0.1 mm 2 mps 730 mmHg 79%
    09:00 +8°C° 0 mm 3 mps 730 mmHg 75%
    10:00 +9°C° 0 mm 3 mps 731 mmHg 72%
    11:00 +10°C° 0 mm 3 mps 731 mmHg 69%
    12:00 +10°C° 0.1 mm 3 mps 731 mmHg 66%
    13:00 +11°C° 0.1 mm 3 mps 731 mmHg 62%
    14:00 +12°C° 0.1 mm 3 mps 731 mmHg 59%
    15:00 +12°C° 0.1 mm 3 mps 731 mmHg 60%
    16:00 +12°C° 0.1 mm 3 mps 731 mmHg 61%
    17:00 +11°C° 0.1 mm 3 mps 731 mmHg 62%
    18:00 +10°C° 0.2 mm 2 mps 731 mmHg 67%
    19:00 +10°C° 0.2 mm 2 mps 731 mmHg 73%
    20:00 +9°C° 0.2 mm 2 mps 732 mmHg 78%
    21:00 +8°C° 0.2 mm 2 mps 732 mmHg 79%
    22:00 +7°C° 0.2 mm 2 mps 732 mmHg 80%
    23:00 +8°C° 0.2 mm 1 mps 732 mmHg 81%

    28 March, Thursday

    Time Temperature Precipitation Wind Pressure Humidity
    00:00 +6°C° 0 mm 2 mps 732 mmHg 82%
    01:00 +5°C° 0 mm 2 mps 732 mmHg 83%
    02:00 +5°C° 0 mm 2 mps 733 mmHg 83%
    03:00 +4°C° 0 mm 2 mps 733 mmHg 85%
    04:00 +4°C° 0 mm 2 mps 733 mmHg 88%
    05:00 +4°C° 0 mm 2 mps 733 mmHg 90%
    06:00 +4°C° 0 mm 2 mps 733 mmHg 86%
    07:00 +4°C° 0 mm 3 mps 733 mmHg 82%
    08:00 +4°C° 0 mm 3 mps 734 mmHg 78%
    09:00 +5°C° 0 mm 4 mps 734 mmHg 71%
    10:00 +6°C° 0 mm 5 mps 734 mmHg 63%
    11:00 +8°C° 0 mm 5 mps 735 mmHg 56%
    12:00 +8°C° 0 mm 6 mps 734 mmHg 54%
    13:00 +9°C° 0 mm 6 mps 734 mmHg 52%
    14:00 +10°C° 0 mm 7 mps 734 mmHg 50%
    15:00 +9°C° 0 mm 7 mps 733 mmHg 52%
    16:00 +8°C° 0 mm 7 mps 733 mmHg 54%
    17:00 +8°C° 0 mm 7 mps 733 mmHg 55%
    18:00 +7°C° 0 mm 6 mps 733 mmHg 58%
    19:00 +4°C° 0 mm 6 mps 733 mmHg 61%
    20:00 +3°C° 0 mm 5 mps 734 mmHg 64%
    21:00 +2°C° 0 mm 5 mps 734 mmHg 65%
    22:00 +1°C° 0 mm 5 mps 734 mmHg 67%
    23:00 +1°C° 0 mm 5 mps 734 mmHg 69%

    29 March, Friday

    Time Temperature Precipitation Wind Pressure Humidity
    00:00 0°C° 0 mm 5 mps 734 mmHg 70%
    01:00 0°C° 0 mm 5 mps 734 mmHg 72%
    02:00 -2°C° 0 mm 6 mps 734 mmHg 74%
    03:00 -2°C° 0 mm 6 mps 734 mmHg 73%
    04:00 -2°C° 0 mm 6 mps 734 mmHg 72%
    05:00 -2°C° 0 mm 6 mps 734 mmHg 71%
    06:00 -2°C° 0 mm 7 mps 734 mmHg 66%
    07:00 -1°C° 0 mm 8 mps 734 mmHg 61%
    08:00 -1°C° 0 mm 8 mps 735 mmHg 56%
    09:00 0°C° 0 mm 9 mps 735 mmHg 53%
    10:00 +2°C° 0 mm 9 mps 734 mmHg 51%
    11:00 +3°C° 0 mm 10 mps 734 mmHg 49%
    12:00 +3°C° 0 mm 10 mps 734 mmHg 49%
    13:00 +5°C° 0 mm 10 mps 733 mmHg 49%
    14:00 +5°C° 0 mm 10 mps 733 mmHg 50%
    15:00 +5°C° 0 mm 10 mps 733 mmHg 50%
    16:00 +5°C° 0 mm 10 mps 732 mmHg 50%
    17:00 +5°C° 0 mm 9 mps 732 mmHg 49%
    18:00 +4°C° 0 mm 8 mps 732 mmHg 54%
    19:00 +2°C° 0 mm 8 mps 733 mmHg 59%
    20:00 0°C° 0 mm 7 mps 733 mmHg 63%
    21:00 -1°C° 0 mm 6 mps 733 mmHg 66%
    22:00 -1°C° 0 mm 6 mps 733 mmHg 69%
    23:00 -2°C° 0 mm 6 mps 733 mmHg 72%
    Show more